NOAA NWS Hourly Roundups by Site

Regional Weather Roundup for Green Bay, WI

To Select Another Site Choose from List

Select Site:  

000
ASUS43 KGRB 041611
RWRGRB

NORTH-CENTRAL AND NORTHEAST WISCONSIN REGIONAL WEATHER ROUNDUP
NATIONAL WEATHER SERVICE GREEN BAY WI
1000 AM CST SAT DEC 04 2021

WIZ005-009-010>012-018-019-041700-
NORTH CENTRAL WISCONSIN

CITY           SKY/WX    TMP DP  RH WIND       PRES   REMARKS
IRONWOOD       CLOUDY    23  14  68 W15G23    30.16R
MANITOWISH WTR MOSUNNY   24  11  58 W14       30.14R
ARBOR VITAE    MOSUNNY   26  -2  29 NW10G17   30.13R
EAGLE RIVER    MOSUNNY   24  11  57 NW14      30.12R
LAND O LAKES   CLOUDY    24  13  62 W15G21    30.12R
RHINELANDER    MOSUNNY   25  10  53 W14G28    30.14R
PHILLIPS       PTSUNNY   25  12  57 NW9G17    30.18R
ANTIGO         MOSUNNY   28  13  53 NW15G24   30.16R
TOMAHAWK       MOSUNNY   28  11  50 W12G21    30.17R
MERRILL        MOSUNNY   29  14  54 NW10G17   30.18R
$$

WIZ013-073-041700-
NORTHEAST WISCONSIN

CITY           SKY/WX    TMP DP  RH WIND       PRES   REMARKS
IRON MOUNTAIN  PTSUNNY   29  13  51 W17G29    30.09R
MARINETTE      SUNNY     32  16  51 VRB7G17   30.18R
OCONTO         MOSUNNY   32  15  50 W13       30.19S
$$

WIZ017-030-035>037-045-041700-
CENTRAL WISCONSIN

CITY           SKY/WX    TMP DP  RH WIND       PRES   REMARKS
MEDFORD        PTSUNNY   27  15  60 W12G17    30.21R
WAUSAU         MOSUNNY   31  15  52 W20G25    30.19R
MOSINEE        MOSUNNY   28  16  59 W14G23    30.22R
MARSHFIELD     MOSUNNY   29  16  58 W13       30.24R
WISC RAPIDS    MOSUNNY   30  16  56 W9G21     30.27R
STEVENS POINT  MOSUNNY   31  12  45 W12G18    30.23R
WAUPACA        PTSUNNY   32  14  47 W13       30.24R
SHAWANO        MOSUNNY   32  16  52 W9        30.20R
CLINTONVILLE   MOSUNNY   32  14  47 W12       30.23R
WAUTOMA        PTSUNNY   31  18  58 W13       30.27R
$$

WIZ038-039-048-051-041700-
FOX VALLEY

CITY           SKY/WX    TMP DP  RH WIND       PRES   REMARKS
NWS GREEN BAY  MOSUNNY   32  17  54 W13G22    30.21R
APPLETON       PTSUNNY   28  16  59 W14G20    30.20R
OSHKOSH        CLOUDY    31  19  61 W13G20    30.23R
FOND DU LAC    CLOUDY    35  17  47 W13G22    30.25R
$$

WIZ022-050-052-041700-
EAST CENTRAL WISCONSIN

CITY           SKY/WX    TMP DP  RH WIND       PRES   REMARKS
EPHRAIM        FAIR      31  15  51 W13       30.14R
WASHINGTON ISL PTSUNNY   32  17  54 W15G25    30.12S
STURGEON BAY   SUNNY     32  17  54 NW16      30.18R
MANITOWOC      MOSUNNY   31  18  58 W16G22    30.22R
SHEBOYGAN      PTSUNNY   33  18  53 NW13G22   30.23R
$$

LMZ563-521-522-541>543-041700-
LAKESHORE

STATION/POSITION TIME  TEMP    WIND        PRES    VSBY  WAVE
                       AIR SEA DIR/SP/G                  HT/PER
                 (UTC) (F)     (DEG/KT/KT) (MB)    (MI)  (FT/S)
SHEBOYGAN LKSHOR 1600   32     300/ 13/ 17 1024.6R
KEWAUNEE LKSHORE 1524   31     290/ 11/ 16 1021.4
NORTHPORT PIER   1540   33     260/  9/ 15 1021.0R
SISTER BAY LKSHO 1525   33     290/ 21/ 24   N/A
MENOMINEE LKSHOR 1524   30 37  260/ 10/ 20 1020.3
$$


 

View Past Reports for Green Bay, WI.

Products Courtesy of NOAA-NWS
NWS Information Parsing Script by Ken True at Saratoga Weather - Script by SE Lincoln Weather.